• Join FlightAware (Why Join?)
  • Login
  • US Flag 
04:10AM EDT


 

Airport Tracker/Info


-or-


 

Live Flight TrackerFlight Track Log ✈ UAL5999 ✈ 18-Apr-2013 ✈ KGRB - KORD

Flight Track Log - Related Links

Times and Time Zones

All times are in EDT time to prevent confusion due to time zone crossing. See the UAL5999 flight status page for this flight to view local times or setup timezone preferences in your user account.

Time Position Orientation Groundspeed Altitude Reporting Facility
EDT Latitude Longitude Course Direction KTS MPH feet Rate Location/Type
07:12AM 44.4200 -88.0450 180° South 210 242 5,800  Level Minneapolis Center
07:13AM 44.3508 -88.0531 185° South 238 274 7,900 2,160 Climbing Minneapolis Center
07:14AM 44.2739 -88.0572 182° South 271 312 10,200 1,920 Climbing Minneapolis Center
07:15AM 44.2257 -88.1659 176° South  Level FlightAware Approximate
07:15AM 44.1942 -88.0636 183° South 284 327 11,800  Level Minneapolis Center
07:16AM 44.1446 -88.1578 176° South  Level FlightAware Approximate
07:16AM 44.1053 -88.0706 183° South 314 361 13,100  Level Minneapolis Center
07:17AM 44.0634 -88.1500 180° South  Level FlightAware Approximate
07:17AM 44.0069 -88.0789 183° South 349 402 13,100  Level Minneapolis Center
07:18AM 43.9092 -88.0872 184° South 351 404 13,100  Level Minneapolis Center
07:19AM 43.8097 -88.0939 183° South 356 410 13,100  Level Minneapolis Center
07:20AM 43.7061 -88.1031 184° South 367 422 13,100  Level Minneapolis Center
07:21AM 43.6036 -88.1111 183° South 367 422 13,100 -120 Level Minneapolis Center
07:21AM 43.5500 -88.1167 184° South 339 390 13,000 -120 Descending KMKE
07:22AM 43.5089 -88.1189 182° South 343 395 13,000  Level Chicago Center
07:23AM 43.4131 -88.1242 182° South 341 392 13,000  Level Chicago Center
07:24AM 43.3175 -88.1114 174° South 341 392 13,000  Level Chicago Center
07:25AM 43.2222 -88.0972 174° South 342 394 13,000  Level Chicago Center
07:26AM 43.1144 -88.0764 172° South 336 387 13,000 -60 Level Chicago Center
07:27AM 43.0361 -88.0569 170° South 289 333 12,900 -300 Descending Chicago Center
07:27AM 43.0167 -88.0500 165° South 272 313 12,600 -960 Descending KMKE
07:28AM 42.9500 -88.0500 180° South 268 308 11,800 -1,020 Descending KMKE
07:29AM 42.8833 -88.0667 190° South 245 282 10,700 -1,080 Descending KMKE
07:30AM 42.8256 -88.0850 193° South 239 275 9,900 -1,020 Descending Chicago Center
07:31AM 42.7633 -88.0997 190° South 228 262 8,900 -960 Descending Chicago Center
07:32AM 42.6989 -88.1133 189° South 231 266 8,000 -480 Descending Chicago Center
07:33AM 42.6294 -88.1153 181° South 255 293 8,000  Level Chicago Center
07:34AM 42.5583 -88.0914 166° South 262 302 8,000  Level Chicago Center
07:35AM 42.4847 -88.0697 168° South 268 308 8,000  Level Chicago Center
07:36AM 42.4122 -88.0517 170° South 265 305 8,000  Level Chicago Center
07:37AM 42.3439 -88.0553 182° South 248 285 8,000 -660 Level Chicago Center
07:38AM 42.2756 -88.0786 194° South 251 289 6,700 -1,440 Descending Chicago Center
07:39AM 42.2133 -88.1183 205° Southwest 246 283 5,200 -1,380 Descending Chicago Center
07:40AM 42.1481 -88.1653 208° Southwest 257 296 4,000 -600 Descending Chicago Center
07:41AM 42.0861 -88.2047 205° Southwest 255 293 4,000 -300 Level Chicago Center
07:42AM 42.0339 -88.1869 166° South 216 249 3,500 -780 Descending Chicago Center
07:43AM 41.9814 -88.1550 156° South 208 239 2,500 -660 Descending Chicago Center
07:44AM 41.9667 -88.1000 110° East 188 216 2,500  Level Chicago TRACON